Location: Olsztyn
(53.7767°N, 20.4765°E)
Time: 13:38:56
(UTC+02:00)

Altair - Visible Passes

Search period start: 19 July 2024 00:00
Search period end: 29 July 2024 00:00
Orbit: 1502 x 1682 km, 47.2° (Epoch: 18 July)

Date Brightness Start Highest point End Pass type
(mag) Time Alt. Az. Time Alt. Az. Time Alt. Az.
19 Jul 7.8 00:23:02 10° W 00:31:23 41° SSW 00:39:34 11° SE visible
19 Jul 8.6 02:28:42 10° W 02:34:03 17° SW 02:37:23 14° SSW visible
19 Jul 7.5 21:53:39 10° WSW 22:02:38 59° S 22:11:34 10° ESE visible
19 Jul 7.7 23:57:51 10° W 00:06:17 43° SSW 00:13:48 14° SE visible
20 Jul 8.5 02:03:16 10° W 02:09:02 19° SW 02:11:41 16° SSW visible
20 Jul 7.6 21:28:29 10° WSW 21:37:29 59° S 21:46:24 10° ESE visible
20 Jul 7.7 23:32:40 10° W 23:41:11 45° SSW 23:48:34 14° SE visible
21 Jul 8.5 01:37:54 10° W 01:44:01 20° SW 01:46:29 18° SSW visible
21 Jul 7.7 23:07:29 10° W 23:16:04 46° SSW 23:23:38 14° SE visible
22 Jul 8.4 01:12:32 10° W 01:18:59 22° SW 01:21:34 19° SSW visible
22 Jul 7.7 22:42:18 10° W 22:50:58 48° SSW 22:58:53 13° SE visible
23 Jul 8.4 00:47:14 10° W 00:53:56 23° SW 00:56:50 20° SSW visible
23 Jul 7.7 22:17:07 10° W 22:25:51 50° SSW 22:34:16 11° SE visible
24 Jul 8.4 00:21:55 10° W 00:28:54 25° SW 00:32:13 20° SSW visible
24 Jul 7.7 21:51:56 10° W 22:00:44 51° SSW 22:09:28 10° SE visible
24 Jul 8.3 23:56:39 10° W 00:03:51 27° SW 00:07:43 20° S visible
25 Jul 7.7 21:26:45 10° W 21:35:36 52° SSW 21:44:22 10° ESE visible
25 Jul 8.3 23:31:23 10° W 23:38:48 29° SW 23:43:17 19° S visible
26 Jul 8.3 23:06:08 10° W 23:13:45 30° SW 23:18:55 18° S visible
27 Jul 8.2 22:40:54 10° W 22:48:41 32° SW 22:54:37 16° SSE visible
28 Jul 8.2 22:15:40 10° W 22:23:37 34° SW 22:30:22 14° SSE visible
